Hourly Data Report for September 27, 2017

All times are specified in Local Standard Time (LST). Add 1 hour to adjust for Daylight Saving Time where and when it is observed.

HALL BEACH A
NUNAVUT

68°46'33.000" N
81°14'33.000" W
9.10 m
2402354
71293
YUX

Related Data

No related data is available for this station

Download Data

Hourly Data (September 2017)
Hourly Data Report for September 27, 2017
Temp Definition
°C
Dew Point Temp Definition
°C
Rel Hum Definition
%
Wind Dir Definition
10's deg

Wind Spd Definition
km/h
Visibility Definition
km
Stn Press Definition
kPa
Hmdx Definition


Wind Chill Definition


Weather Definition


TIME
00:00 Legend Double Dagger -3.3 -5.8 83   0 16.1 101.39     LegendNANA
01:00 Legend Double Dagger -3.2 -5.5 84   0 16.1 101.38     LegendNANA
02:00 Legend Double Dagger -3.1 -5.1 86   0 16.1 101.34     LegendNANA
03:00 Legend Double Dagger -2.8 -4.5 88 13 8 16.1 101.33   -6 LegendNANA
04:00 Legend Double Dagger -1.9 -3.6 88 16 13 16.1 101.30   -6 LegendNANA
05:00 Legend Double Dagger -1.9 -3.5 89 14 11 16.1 101.29   -6 LegendNANA
06:00 Legend Double Dagger -1.6 -3.0 90 14 17 16.1 101.24   -7 LegendNANA
07:00 Legend Double Dagger -1.3 -2.9 89 14 24 16.1 101.20   -7 LegendNANA
08:00 Legend Double Dagger -0.6 -2.0 90 15 24 16.1 101.15   -7 LegendNANA
09:00 Legend Double Dagger 0.0 -1.1 92 16 22 16.1 101.09   -6 LegendNANA
10:00 Legend Double Dagger -0.2 -1.3 92 17 26 16.1 101.07   -6 LegendNANA
11:00 Legend Double Dagger 0.1 -0.8 94 16 24 11.3 101.00     LegendNANA
12:00 Legend Double Dagger 0.7 -0.3 93 17 26 16.1 100.93     LegendNANA
13:00 Legend Double Dagger 0.9 0.0 94 16 24 16.1 100.87     LegendNANA
14:00 Legend Double Dagger 1.0 0.4 96 16 28 9.7 100.81     Fog
15:00 Legend Double Dagger 0.9 0.5 97 17 21 1.6 100.78     Fog
16:00 Legend Double Dagger 1.0 0.6 97 17 21 2.0 100.70     Fog
17:00 Legend Double Dagger 1.0 0.7 98 18 18 9.7 100.65     Fog
18:00 Legend Double Dagger 1.1 0.8 98 18 21 16.1 100.59     Rain
19:00 Legend Double Dagger 1.4 1.1 98 21 17 12.9 100.54     LegendNANA
20:00 Legend Double Dagger 1.5 1.2 98 25 18 16.1 100.49     Rain
21:00 Legend Double Dagger 1.4 0.8 96 28 22 16.1 100.46     LegendNANA
22:00 Legend Double Dagger 0.8 -0.2 93 30 34 16.1 100.45     LegendNANA
23:00 Legend Double Dagger 0.2 -1.1 91 31 32 16.1 100.50     LegendNANA

Notes on Data Quality.

Legend

  • E = Estimated
  • M = Missing
  • NA = Not Available
  • ‡ = Partner data that is not subject to review by the National Climate Archives
Date modified: